Hurricane Symbol View the latest observations near Atlantic Tropical Storm Philippe.

Station CRYV2 - 8638595 - South Craney Island, VA Image indicating link to RSS feed of recent meteorological observations for station CRYV2


Conditions at CRYV2 as of
(1:18 pm EDT)
1718 GMT on 09/26/2023:
     

Click on the graph icon in the table below to see a time series plot of the last five days of that observation.

5-day plot - Wind Direction Wind Direction (WDIR): NE ( 40 deg true )
5-day plot - Wind Speed Wind Speed (WSPD): 13.0 kts
5-day plot - Wind Gust Wind Gust (GST): 17.1 kts
5-day plot - Atmospheric Pressure Atmospheric Pressure (PRES):30.18 in
5-day plot - Air Temperature Air Temperature (ATMP): 69.3 °F
5-day plot - Wind Speed at 10 Meters Wind Speed at 10 meters (WSPD10M): 13.6 kts
5-day plot - Wind Speed at 20 Meters Wind Speed at 20 meters (WSPD20M): 15.5 kts
5-day plot -  Wind Speed, Wind Gust and Atmospheric Pressure Combined plot of Wind Speed, Gust, and Air Pressure
NOS Water Level Observation Network Water Level
Previous observations
TIME
(EDT)
5-day plot - Wind Direction
WDIR
 
5-day plot - Wind Speed
WSPD
kts
5-day plot - Wind Gust
GST
kts
5-day plot - Wave Height
WVHT
ft
5-day plot - Dominant Wave Period
DPD
sec
5-day plot - Average Wave Period
APD
sec
5-day plot - Mean Wave Direction
MWD
 
5-day plot - Atmospheric Pressure
PRES
in
5-day plot - Pressure Tendency
PTDY
in
5-day plot - Air Temperature
ATMP
°F
5-day plot - Water Temperature
WTMP
°F
5-day plot - Dew Point
DEWP
°F
5-day plot - Salinity
SAL
psu
5-day plot - Visibility
VIS
nmi
5-day plot - Tide (above MLLW)
TIDE
ft
2023-09-26 01:12 pmNNE 11.1 14.0----30.18- 69.1-----
2023-09-26 01:06 pmNNE 13.0 15.9----30.18- 68.5-----
2023-09-26 01:00 pmNNE 13.0 17.1----30.18+0.00 69.1-----
2023-09-26 12:54 pm NE 12.0 15.9----30.18- 69.3-----
2023-09-26 12:48 pm NE 12.0 15.0----30.18- 68.7-----
2023-09-26 12:42 pm NE 12.0 15.9----30.18- 68.4-----
2023-09-26 12:36 pm NE 13.0 17.1----30.18- 68.7-----
2023-09-26 12:30 pm NE 11.1 14.0----30.19- 69.1-----
2023-09-26 12:24 pm NE 12.0 15.9----30.19- 68.7-----
2023-09-26 12:18 pm NE 14.0 15.9----30.19- 68.5-----
2023-09-26 12:12 pm NE 9.9 12.0----30.19- 68.9-----
2023-09-26 12:06 pm NE 9.9 12.0----30.19- 68.5-----
2023-09-26 12:00 pm NE 11.1 14.0----30.19+0.02 68.5-----
2023-09-26 11:54 am NE 12.0 15.9----30.19- 68.0-----
2023-09-26 11:48 am NE 11.1 12.0----30.19- 68.5-----
2023-09-26 11:42 am N 7.0 9.9----30.19- 67.8-----
2023-09-26 11:36 amNNW 4.1 7.0----30.19- 67.6-----
2023-09-26 11:30 am NW 5.1 7.0----30.19- 68.2-----
2023-09-26 11:24 amNNW 5.1 7.0----30.19- 68.0-----
2023-09-26 11:18 amNNW 4.1 8.0----30.19- 68.2-----
2023-09-26 11:12 am NW 6.0 8.9----30.19- 67.8-----
2023-09-26 11:06 am NW 5.1 8.0----30.19- 68.0-----
2023-09-26 11:00 am NW 6.0 8.9----30.19+0.03 67.8-----
2023-09-26 10:54 amNNW 6.0 8.0----30.19- 67.6-----
2023-09-26 10:48 am NW 5.1 8.0----30.18- 67.6-----
2023-09-26 10:42 am NW 6.0 8.0----30.18- 67.5-----
2023-09-26 10:36 am NW 5.1 8.9----30.18- 67.5-----
2023-09-26 10:30 amNNW 6.0 8.9----30.18- 67.3-----
2023-09-26 10:24 am NW 6.0 8.0----30.18- 67.3-----
2023-09-26 10:18 am NW 5.1 8.0----30.18- 67.3-----
2023-09-26 10:12 am NW 5.1 8.9----30.18- 67.1-----
2023-09-26 10:06 amNNW 6.0 8.9----30.18- 66.6-----
2023-09-26 10:00 amNNW 4.1 8.0----30.18+0.03 66.6-----
2023-09-26 09:54 am NW 6.0 9.9----30.18- 66.4-----
2023-09-26 09:48 amNNW 6.0 8.9----30.18- 66.4-----
2023-09-26 09:42 amNNW 7.0 8.9----30.18- 66.0-----
2023-09-26 09:36 amNNW 5.1 8.9----30.17- 66.0-----
2023-09-26 09:30 amNNW 6.0 8.9----30.18- 66.0-----
2023-09-26 09:24 amNNW 6.0 8.9----30.18- 66.0-----
2023-09-26 09:18 amNNW 7.0 9.9----30.17- 66.0-----
2023-09-26 09:12 amNNW 6.0 8.9----30.17- 66.0-----
2023-09-26 09:06 amNNW 6.0 8.9----30.17- 66.0-----
2023-09-26 09:00 am NW 6.0 8.9----30.17+0.04 66.0-----
2023-09-26 08:54 amNNW 7.0 8.0----30.17- 66.0-----
2023-09-26 08:48 amNNW 6.0 8.0----30.17- 65.8-----
2023-09-26 08:42 amNNW 5.1 8.9----30.17- 65.7-----
2023-09-26 08:36 amNNW 5.1 8.0----30.16- 65.8-----
2023-09-26 08:30 amNNW 5.1 7.0----30.17- 65.7-----
2023-09-26 08:24 am NW 5.1 8.0----30.16- 65.7-----
2023-09-26 08:18 amNNW 6.0 8.0----30.16- 65.7-----
2023-09-26 08:12 am NW 5.1 7.0----30.16- 65.7-----
2023-09-26 08:06 amNNW 6.0 8.9----30.16- 65.5-----
2023-09-26 08:00 am NW 5.1 8.9----30.16+0.05 65.7-----
2023-09-26 07:54 amNNW 7.0 8.0----30.16- 65.5-----
2023-09-26 07:48 amNNW 6.0 8.9----30.16- 65.5-----
2023-09-26 07:42 amNNW 6.0 8.9----30.16- 65.5-----
2023-09-26 07:36 am NW 4.1 7.0----30.16- 65.5-----
2023-09-26 07:30 am NW 5.1 8.9----30.15- 65.5-----
2023-09-26 07:24 amNNW 5.1 8.9----30.15- 65.3-----
2023-09-26 07:18 amNNW 6.0 8.0----30.15- 65.1-----
2023-09-26 07:12 am N 7.0 9.9----30.15- 65.3-----
2023-09-26 07:06 amNNW 7.0 11.1----30.15- 65.3-----
2023-09-26 07:00 am N 7.0 12.0----30.15+0.05 65.5-----
2023-09-26 06:54 amNNW 9.9 13.0----30.14- 65.1-----
2023-09-26 06:48 amNNW 8.0 11.1----30.14- 65.5-----
2023-09-26 06:42 am N 6.0 8.9----30.14- 65.7-----
2023-09-26 06:36 amNNW 7.0 9.9----30.14- 65.7-----
2023-09-26 06:30 am N 8.0 11.1----30.14- 65.8-----
2023-09-26 06:24 am N 8.9 11.1----30.14- 65.7-----
2023-09-26 06:18 am N 8.0 12.0----30.14- 65.8-----
2023-09-26 06:12 amNNW 5.1 8.9----30.14- 65.8-----
2023-09-26 06:06 am N 7.0 8.9----30.14- 66.0-----
2023-09-26 06:00 amNNW 6.0 8.9----30.14+0.04 66.0-----
2023-09-26 05:54 amNNW 6.0 8.9----30.13- 66.2-----
2023-09-26 05:48 am N 7.0 9.9----30.13- 66.4-----
2023-09-26 05:42 amNNW 7.0 9.9----30.12- 66.4-----
2023-09-26 05:36 am N 9.9 12.0----30.12- 66.7-----
2023-09-26 05:30 am N 9.9 12.0----30.11- 66.6-----
2023-09-26 05:24 am N 8.0 11.1----30.11- 66.9-----
2023-09-26 05:18 am N 8.0 9.9----30.11- 66.7-----
2023-09-26 05:12 am N 8.9 11.1----30.11- 66.9-----
2023-09-26 05:06 am N 8.0 12.0----30.11- 67.1-----
2023-09-26 05:00 am N 8.9 12.0----30.11+0.00 66.9-----
2023-09-26 04:54 am N 8.9 13.0----30.11- 66.9-----
2023-09-26 04:48 am N 11.1 13.0----30.11- 67.1-----
2023-09-26 04:42 am N 11.1 14.0----30.11- 67.3-----
2023-09-26 04:36 am N 11.1 14.0----30.10- 67.6-----
2023-09-26 04:30 am N 9.9 12.0----30.10- 67.8-----
2023-09-26 04:24 am N 9.9 12.0----30.10- 68.2-----
2023-09-26 04:18 am N 9.9 12.0----30.10- 68.0-----
2023-09-26 04:12 am N 8.9 11.1----30.10- 68.0-----
2023-09-26 04:06 am N 8.9 12.0----30.10- 68.0-----
2023-09-26 04:00 amNNE 9.9 12.0----30.09-0.02 68.0-----
2023-09-26 03:54 am N 9.9 12.0----30.09- 68.0-----
2023-09-26 03:48 am N 12.0 12.0----30.09- 68.0-----
2023-09-26 03:42 amNNE 9.9 11.1----30.09- 68.2-----
2023-09-26 03:36 amNNE 8.9 12.0----30.09- 68.4-----
2023-09-26 03:30 am N 11.1 12.0----30.09- 68.0-----
2023-09-26 03:24 am N 8.0 9.9----30.09- 68.0-----
2023-09-26 03:18 am N 8.9 11.1----30.09- 67.6-----
2023-09-26 03:12 am N 8.9 11.1----30.09- 67.8-----
2023-09-26 03:06 am N 9.9 12.0----30.09- 68.0-----
2023-09-26 03:00 am N 8.9 11.1----30.09+0.00 67.8-----
2023-09-26 02:54 am N 8.0 11.1----30.10- 67.8-----
2023-09-26 02:48 am N 8.0 11.1----30.10- 67.8-----
2023-09-26 02:42 am N 8.0 9.9----30.10- 67.8-----
2023-09-26 02:36 am N 8.0 11.1----30.10- 68.0-----
2023-09-26 02:30 am N 8.0 11.1----30.10- 68.2-----
2023-09-26 02:24 am N 8.9 11.1----30.10- 67.8-----
2023-09-26 02:18 am N 8.9 11.1----30.10- 68.0-----
2023-09-26 02:12 am N 7.0 9.9----30.11- 68.0-----
2023-09-26 02:06 am N 8.0 12.0----30.10- 68.0-----
2023-09-26 02:00 am N 8.9 12.0----30.10+0.01 68.4-----
2023-09-26 01:54 am N 9.9 12.0----30.11- 68.4-----
2023-09-26 01:48 am N 8.0 9.9----30.11- 68.4-----
2023-09-26 01:42 am N 7.0 8.9----30.11- 68.4-----
2023-09-26 01:36 amNNW 6.0 8.9----30.11- 68.4-----
2023-09-26 01:30 am N 8.0 11.1----30.11- 68.5-----
2023-09-26 01:24 am N 8.0 9.9----30.11- 68.7-----
2023-09-26 01:18 am N 7.0 9.9----30.11- 68.7-----
2023-09-26 01:12 am N 7.0 9.9----30.10- 68.9-----
2023-09-26 01:06 am N 8.0 8.9----30.11- 68.9-----
2023-09-26 01:00 am N 5.1 8.9----30.11+0.03 68.9-----
2023-09-26 12:54 am N 6.0 8.0----30.11- 69.1-----
2023-09-26 12:48 am N 6.0 9.9----30.11- 69.3-----
2023-09-26 12:42 am N 7.0 9.9----30.11- 69.4-----
2023-09-26 12:36 am N 8.0 8.9----30.11- 69.1-----
2023-09-26 12:30 am N 8.0 8.9----30.11- 69.3-----
2023-09-26 12:24 am N 8.0 9.9----30.10- 69.4-----
2023-09-26 12:18 am N 8.9 11.1----30.10- 69.8-----
2023-09-26 12:12 am N 8.9 11.1----30.10- 69.6-----
2023-09-26 12:06 am N 8.0 9.9----30.10- 69.6-----
2023-09-26 12:00 am N 7.0 8.0----30.10+0.03 69.8-----
2023-09-25 11:54 pm N 5.1 8.0----30.10- 69.8-----
2023-09-25 11:48 pm N 6.0 9.9----30.10- 69.8-----
2023-09-25 11:42 pm N 8.9 9.9----30.10- 70.0-----
2023-09-25 11:36 pm N 8.9 9.9----30.10- 70.2-----
2023-09-25 11:30 pm N 8.9 11.1----30.10- 70.2-----
2023-09-25 11:24 pm N 9.9 12.0----30.09- 70.3-----
2023-09-25 11:18 pm N 9.9 11.1----30.09- 70.3-----
2023-09-25 11:12 pm N 9.9 12.0----30.09- 70.3-----
2023-09-25 11:06 pm N 8.9 11.1----30.09- 70.7-----
2023-09-25 11:00 pm N 9.9 11.1----30.09+0.04 70.7-----
2023-09-25 10:54 pm N 8.0 9.9----30.09- 70.5-----
2023-09-25 10:48 pm N 8.0 9.9----30.09- 71.1-----
2023-09-25 10:42 pm N 8.9 11.1----30.09- 70.9-----
2023-09-25 10:36 pmNNE 7.0 9.9----30.09- 71.1-----
2023-09-25 10:30 pm N 7.0 8.9----30.09- 71.1-----
2023-09-25 10:24 pmNNE 8.0 11.1----30.09- 70.9-----
2023-09-25 10:18 pmNNE 8.9 9.9----30.09- 70.9-----
2023-09-25 10:12 pm N 8.9 9.9----30.09- 70.9-----
2023-09-25 10:06 pmNNE 6.0 8.9----30.09- 71.1-----
2023-09-25 10:00 pm N 8.9 11.1----30.09+0.04 71.1-----
2023-09-25 09:54 pm N 8.0 9.9----30.09- 71.4-----
2023-09-25 09:48 pmNNE 8.0 11.1----30.08- 71.2-----
2023-09-25 09:42 pmNNE 8.0 9.9----30.08- 71.2-----
2023-09-25 09:36 pmNNE 8.0 8.9----30.08- 71.1-----
2023-09-25 09:30 pmNNE 8.0 9.9----30.08- 71.2-----
2023-09-25 09:24 pmNNE 8.0 9.9----30.08- 71.2-----
2023-09-25 09:18 pm NE 9.9 12.0----30.07- 71.2-----
2023-09-25 09:12 pmNNE 8.9 12.0----30.07- 71.1-----
2023-09-25 09:06 pmNNE 8.9 12.0----30.07- 71.1-----
2023-09-25 09:00 pmNNE 9.9 13.0----30.07+0.04 71.1-----
2023-09-25 08:54 pmNNE 8.9 12.0----30.07- 71.2-----
2023-09-25 08:48 pmNNE 8.9 12.0----30.07- 71.2-----
2023-09-25 08:42 pmNNE 9.9 12.0----30.07- 71.1-----
2023-09-25 08:36 pmNNE 7.0 11.1----30.07- 71.2-----
2023-09-25 08:30 pmNNE 7.0 11.1----30.06- 71.1-----
2023-09-25 08:24 pmNNE 9.9 12.0----30.06- 71.1-----
2023-09-25 08:18 pmNNE 9.9 13.0----30.06- 71.1-----
2023-09-25 08:12 pm NE 8.9 12.0----30.06- 71.1-----
2023-09-25 08:06 pm NE 8.9 11.1----30.06- 71.1-----
2023-09-25 08:00 pmNNE 8.0 9.9----30.05+0.03 71.1-----
2023-09-25 07:54 pm NE 8.0 9.9----30.05- 71.1-----
2023-09-25 07:48 pm NE 8.9 11.1----30.05- 71.1-----
2023-09-25 07:42 pmNNE 7.0 8.0----30.05- 71.1-----
2023-09-25 07:36 pmNNE 7.0 8.9----30.05- 71.2-----
2023-09-25 07:30 pmNNE 7.0 8.9----30.05- 71.2-----
2023-09-25 07:24 pmNNE 7.0 9.9----30.05- 71.2-----
2023-09-25 07:00 pmNNE 7.0 8.9----30.05+0.03 71.2-----
2023-09-25 06:54 pmNNE 8.0 8.9----30.05- 71.2-----
2023-09-25 06:48 pmNNE 8.0 9.9----30.04- 71.1-----
2023-09-25 06:42 pmNNE 7.0 9.9----30.04- 71.4-----
2023-09-25 06:36 pmNNE 8.0 9.9----30.04- 71.2-----
2023-09-25 06:30 pmNNE 8.9 11.1----30.04- 71.2-----
2023-09-25 06:24 pm NE 9.9 12.0----30.03- 71.1-----
2023-09-25 06:18 pmNNE 8.9 9.9----30.03- 71.2-----
2023-09-25 06:12 pmNNE 8.0 9.9----30.03- 71.4-----
2023-09-25 06:06 pm NE 8.9 9.9----30.03- 71.4-----
2023-09-25 06:00 pm NE 8.9 11.1----30.03+0.02 71.1-----
2023-09-25 05:54 pm NE 7.0 9.9----30.03- 71.6-----
2023-09-25 05:48 pmNNE 6.0 8.0----30.03- 71.6-----
2023-09-25 05:42 pm NE 7.0 8.0----30.03- 71.4-----
2023-09-25 05:36 pmNNE 8.0 8.0----30.03- 71.4-----
2023-09-25 05:30 pmNNE 6.0 8.0----30.03- 71.6-----
2023-09-25 05:24 pmNNE 6.0 8.0----30.03- 71.6-----
2023-09-25 05:18 pmNNE 6.0 8.0----30.03- 72.0-----
2023-09-25 05:12 pmNNE 7.0 8.9----30.03- 71.8-----
2023-09-25 05:06 pmNNE 5.1 8.0----30.02- 72.0-----
2023-09-25 05:00 pmNNE 6.0 7.0----30.02+0.01 72.0-----
2023-09-25 04:54 pm NE 6.0 8.0----30.03- 72.0-----
2023-09-25 04:48 pm NE 6.0 8.0----30.02- 72.0-----
2023-09-25 04:42 pmNNE 7.0 8.0----30.02- 72.0-----
2023-09-25 04:36 pmNNE 7.0 8.9----30.01- 72.1-----
2023-09-25 04:30 pm NE 7.0 8.0----30.01- 72.3-----
2023-09-25 04:24 pmNNE 6.0 7.0----30.01- 72.5-----
2023-09-25 04:18 pmNNE 7.0 8.0----30.01- 72.5-----
2023-09-25 04:12 pm N 6.0 8.9----30.01- 72.7-----
2023-09-25 04:06 pmNNE 5.1 6.0----30.01- 72.9-----
2023-09-25 04:00 pm N 5.1 6.0----30.01+0.00 73.0-----
2023-09-25 03:54 pm N 6.0 6.0----30.01- 72.7-----
2023-09-25 03:48 pm N 5.1 6.0----30.01- 72.5-----
2023-09-25 03:42 pmNNE 5.1 6.0----30.01- 72.5-----
2023-09-25 03:36 pmNNE 4.1 6.0----30.01- 72.3-----
2023-09-25 03:30 pmNNE 5.1 5.1----30.01- 72.3-----
2023-09-25 03:24 pmNNE 5.1 6.0----30.01- 72.5-----
2023-09-25 03:18 pmNNE 5.1 6.0----30.01- 72.7-----
2023-09-25 03:12 pmNNE 5.1 6.0----30.01- 72.3-----
2023-09-25 03:06 pmNNE 5.1 7.0----30.01- 72.3-----
2023-09-25 03:00 pmNNE 6.0 7.0----30.01-0.01 72.3-----
2023-09-25 02:54 pmNNE 5.1 6.0----30.01- 72.5-----
2023-09-25 02:48 pmNNE 2.9 5.1----30.02- 72.9-----
2023-09-25 02:42 pmNNE 4.1 6.0----30.01- 72.3-----
2023-09-25 02:36 pmNNE 4.1 5.1----30.01- 72.9-----
2023-09-25 02:30 pmNNE 4.1 5.1----30.01- 72.7-----
2023-09-25 02:24 pm N 5.1 6.0----30.01- 72.5-----
2023-09-25 02:18 pm N 2.9 6.0----30.01- 72.9-----
2023-09-25 02:12 pm N 5.1 6.0----30.01- 72.5-----
2023-09-25 02:06 pm N 4.1 6.0----30.01- 73.2-----
2023-09-25 02:00 pm N 1.9 6.0----30.01+0.00 72.9-----
2023-09-25 01:54 pmNNE 4.1 5.1----30.01- 72.1-----